Карточка аэропорта UNWW

Внимание!
Информация на этой странице в стадии наполнения.
Если вы не увидели какой-то информации, или заметили неточность - пожалуйста сообщите нам!
Спасибо!
Команда RU-STAFF
Название аэропортаСпиченково
Название аэропорта (англ.)Spichenkovo
Превышение1023 ft. (311.8 m.)
Координаты53°48.714', 86°52.704'
Высота перехода800m
Эшелон переходаFL050
Коды ответчика5270-5277
Зона ОрВДНовосибирск РПИ (UNNT)
Данные METARUNWW 100130Z 00000MPS CAVOK 19/13 Q1009 R19/09//60 NOSIG RMK QFE730
Проноз погоды (TAF)UNWW 092000Z 0921/1021 09003G08MPS 8000 SCT040CB TEMPO 0921/1002 0300 -SHRA FG BKN002 BKN040CB TEMPO 1002/1015 -TSRA
NOTAMshow/hide NOTAM
AWOS   TABLE

Информация о ВПП

ВПП Длина ВПП (м.) Покрытие Курс ВПП Частота ILS
012679Цементобетон14 
192679Цементобетон194111.1

Диспетчерские позиции

Позывной Наименование органа УВД Частота
UNWW_TWRНовокузнецк-Старт121.2
UNWW_APPНовокузнецк-Подход118.6



Спутниковое изображение